EW7831 Weather Reports


Display with metric or nautical units.
time (UTC)temp
F
wind
direction
speed
MPH
gust
MPH
rain 1hr
in
rain 24hr
in
rain mn
in
humidity
%
barometer
mb
20220630062506 60 78 5.0 10.0 0.00 0.00 0.00 53 1018.2
20220630062007 60 85 3.0 10.0 0.00 0.00 0.00 55 1018.3
20220630061506 60 98 3.0 8.0 0.00 0.00 0.00 56 1018.2
20220630061006 60 100 3.0 8.0 0.00 0.00 0.00 56 1018.2
20220630060506 60 86 2.0 8.0 0.00 0.00 0.00 57 1018.1
20220630060006 60 73 2.0 7.0 0.00 0.00 0.00 56 1018.2
20220630055506 60 70 2.0 8.0 0.00 0.00 0.00 57 1018.1
20220630055007 60 69 2.0 8.0 0.00 0.00 0.00 56 1018.1
20220630054507 60 81 3.0 8.0 0.00 0.00 0.00 57 1018.1
20220630054006 60 92 2.0 8.0 0.00 0.00 0.00 56 1018.1
20220630053507 60 227 0.0 2.0 0.00 0.00 0.00 60 1018.1
20220630053006 59 251 0.0 2.0 0.00 0.00 0.00 60 1018.1
20220630052507 59 250 0.0 3.0 0.00 0.00 0.00 58 1018.1
20220630052006 59 250 0.0 3.0 0.00 0.00 0.00 59 1018.0
20220630051506 58 0 0.0 0.0 0.00 0.00 0.00 61 1018.2
20220630051007 58 0 0.0 0.0 0.00 0.00 0.00 60 1018.1
20220630050507 57 0 0.0 0.0 0.00 0.00 0.00 60 1018.0
20220630050007 56 0 0.0 0.0 0.00 0.00 0.00 64 1018.2
20220630045507 56 246 0.0 3.0 0.00 0.00 0.00 64 1018.2
20220630045006 56 246 0.0 3.0 0.00 0.00 0.00 64 1018.3
20220630044506 56 246 0.0 1.0 0.00 0.00 0.00 67 1018.3
20220630044006 55 0 0.0 0.0 0.00 0.00 0.00 69 1018.2
20220630043506 54 0 0.0 0.0 0.00 0.00 0.00 69 1018.2
20220630043006 54 0 0.0 0.0 0.00 0.00 0.00 70 1018.3
20220630042506 53 246 0.0 1.0 0.00 0.00 0.00 71 1018.3
20220630042007 53 246 0.0 1.0 0.00 0.00 0.00 71 1018.3
20220630041506 52 246 0.0 1.0 0.00 0.00 0.00 73 1018.1
20220630041007 52 246 0.0 3.0 0.00 0.00 0.00 73 1018.1
20220630040507 52 245 0.0 3.0 0.00 0.00 0.00 72 1018.0
20220630040006 53 238 0.0 5.0 0.00 0.00 0.00 71 1018.1
20220630035506 53 232 0.0 5.0 0.00 0.00 0.00 70 1018.1
20220630035006 54 194 1.0 5.0 0.00 0.00 0.00 67 1018.0
20220630034506 54 194 3.0 7.0 0.00 0.00 0.00 65 1018.1
20220630034006 53 194 5.0 7.0 0.00 0.00 0.00 65 1018.1
20220630033507 53 194 5.0 7.0 0.00 0.00 0.00 66 1018.0
20220630033006 53 195 5.0 7.0 0.00 0.00 0.00 67 1018.1
20220630032506 52 196 5.0 7.0 0.00 0.00 0.00 69 1018.1
20220630032007 52 195 6.0 7.0 0.00 0.00 0.00 70 1018.2
20220630031506 51 195 6.0 7.0 0.00 0.00 0.00 71 1018.2
20220630031006 51 195 6.0 7.0 0.00 0.00 0.00 72 1018.2
20220630030505 50 196 3.0 7.0 0.00 0.00 0.00 73 1018.4
20220630030007 49 196 1.0 7.0 0.00 0.00 0.00 75 1018.3
20220630025506 49 196 2.0 6.0 0.00 0.00 0.00 75 1018.2
20220630025006 49 196 5.0 7.0 0.00 0.00 0.00 74 1018.2
20220630024506 49 195 5.0 7.0 0.00 0.00 0.00 75 1018.2
20220630024006 49 194 5.0 7.0 0.00 0.00 0.00 75 1018.2
20220630023507 49 193 5.0 7.0 0.00 0.00 0.00 76 1018.3
20220630023007 49 192 2.0 6.0 0.00 0.00 0.00 76 1018.3
20220630022507 48 193 0.0 6.0 0.00 0.00 0.00 77 1018.3
20220630022007 49 193 0.0 1.0 0.00 0.00 0.00 76 1018.3
20220630021506 49 193 0.0 1.0 0.00 0.00 0.00 74 1018.3
20220630021006 49 192 2.0 5.0 0.00 0.00 0.00 76 1018.2
20220630020507 49 192 5.0 6.0 0.00 0.00 0.00 78 1018.2
20220630020005 49 193 5.0 7.0 0.00 0.00 0.00 77 1018.2
20220630015507 49 194 6.0 7.0 0.00 0.00 0.00 77 1018.1
20220630015006 49 194 7.0 10.0 0.00 0.00 0.00 76 1018.2
20220630014506 50 194 8.0 12.0 0.00 0.00 0.00 77 1018.2
20220630014006 49 195 8.0 12.0 0.00 0.00 0.00 78 1018.2
20220630013507 49 195 7.0 12.0 0.00 0.00 0.00 78 1018.3
20220630013006 49 194 6.0 8.0 0.00 0.00 0.00 79 1018.2
20220630012507 48 194 3.0 7.0 0.00 0.00 0.00 79 1018.2
20220630012007 48 194 1.0 5.0 0.00 0.00 0.00 79 1018.2
20220630011505 49 193 0.0 5.0 0.00 0.00 0.00 79 1018.3
20220630011007 49 194 1.0 5.0 0.00 0.00 0.00 79 1018.2
20220630010506 49 194 3.0 7.0 0.00 0.00 0.00 79 1018.3
20220630010007 49 191 6.0 8.0 0.00 0.00 0.00 78 1018.3
20220630005507 50 179 3.0 8.0 0.00 0.00 0.00 77 1018.3
20220630005006 51 168 1.0 5.0 0.00 0.00 0.00 74 1018.5
20220630004506 51 169 1.0 5.0 0.00 0.00 0.00 76 1018.4
20220630004007 50 169 1.0 5.0 0.00 0.00 0.00 77 1018.4
20220630003507 51 170 1.0 5.0 0.00 0.00 0.00 75 1018.3
20220630003007 51 170 0.0 5.0 0.00 0.00 0.00 73 1018.3
20220630002506 51 170 1.0 5.0 0.00 0.00 0.00 75 1018.3
20220630002006 49 171 1.0 5.0 0.00 0.00 0.00 78 1018.4
20220630001506 49 171 0.0 3.0 0.00 0.00 0.00 78 1018.5
20220630001007 49 171 0.0 1.0 0.00 0.00 0.00 78 1018.4
20220630000507 49 0 0.0 0.0 0.00 0.00 0.00 78 1018.4
20220630000005 49 182 0.0 5.0 0.00 0.00 0.00 78 1018.4
20220629235506 49 192 3.0 7.0 0.00 0.00 0.00 78 1018.4
20220629235006 49 192 5.0 7.0 0.00 0.00 0.00 78 1018.4
20220629234506 50 192 5.0 6.0 0.00 0.00 0.00 78 1018.5
20220629234007 50 192 5.0 7.0 0.00 0.00 0.00 77 1018.4
20220629233506 51 192 6.0 9.0 0.00 0.00 0.00 76 1018.4
20220629233006 51 192 7.0 10.0 0.00 0.00 0.00 75 1018.5
20220629232506 51 193 7.0 10.0 0.00 0.00 0.00 76 1018.6
20220629232006 51 194 6.0 8.0 0.00 0.00 0.00 76 1018.5
20220629231507 51 193 6.0 7.0 0.00 0.00 0.00 77 1018.6
20220629231006 51 194 6.0 8.0 0.00 0.00 0.00 77 1018.7
20220629230507 50 196 6.0 10.0 0.00 0.00 0.00 78 1018.6
20220629230006 50 194 6.0 10.0 0.00 0.00 0.00 77 1018.5
20220629225507 51 193 5.0 7.0 0.00 0.00 0.00 77 1018.5
20220629225006 51 193 6.0 7.0 0.00 0.00 0.00 77 1018.7
20220629224505 51 194 6.0 8.0 0.00 0.00 0.00 77 1018.6
20220629224007 51 194 6.0 8.0 0.00 0.00 0.00 77 1018.5
20220629223506 51 194 6.0 8.0 0.00 0.00 0.00 77 1018.6
20220629223006 51 195 6.0 8.0 0.00 0.00 0.00 77 1018.6
20220629222506 50 193 6.0 8.0 0.00 0.00 0.00 78 1018.6
20220629222006 50 191 3.0 7.0 0.00 0.00 0.00 77 1018.5
20220629221506 50 182 1.0 6.0 0.00 0.00 0.00 77 1018.6
20220629221006 50 170 2.0 6.0 0.00 0.00 0.00 76 1018.7
20220629220507 50 170 2.0 6.0 0.00 0.00 0.00 76 1018.7
20220629220007 51 168 1.0 5.0 0.00 0.00 0.00 75 1018.7
20220629215507 51 167 0.0 5.0 0.00 0.00 0.00 73 1018.7
20220629215007 51 168 0.0 1.0 0.00 0.00 0.00 73 1018.8
20220629214506 51 0 0.0 0.0 0.00 0.00 0.00 76 1018.9
20220629214007 51 192 1.0 5.0 0.00 0.00 0.00 74 1018.7
20220629213506 51 194 5.0 7.0 0.00 0.00 0.00 74 1018.7
20220629213006 51 195 3.0 8.0 0.00 0.00 0.00 74 1018.7
20220629212506 51 194 3.0 8.0 0.00 0.00 0.00 74 1018.7
20220629212005 51 190 5.0 7.0 0.00 0.00 0.00 74 1018.5
20220629211506 51 171 2.0 7.0 0.00 0.00 0.00 74 1018.6
20220629211007 52 156 1.0 5.0 0.00 0.00 0.00 74 1018.6
20220629210506 53 154 0.0 3.0 0.00 0.00 0.00 72 1018.6
20220629210005 54 154 0.0 3.0 0.00 0.00 0.00 69 1018.8
20220629205506 55 154 1.0 5.0 0.00 0.00 0.00 67 1018.8
20220629205006 55 157 1.0 5.0 0.00 0.00 0.00 67 1018.8
20220629204505 54 162 1.0 5.0 0.00 0.00 0.00 68 1018.8
20220629204007 54 166 1.0 5.0 0.00 0.00 0.00 71 1018.9
20220629203506 54 176 0.0 3.0 0.00 0.00 0.00 72 1018.9
20220629203006 55 193 0.0 3.0 0.00 0.00 0.00 70 1018.9
20220629202506 55 193 0.0 3.0 0.00 0.00 0.00 70 1018.8
20220629202007 55 193 1.0 3.0 0.00 0.00 0.00 69 1018.7
20220629201506 56 193 1.0 5.0 0.00 0.00 0.00 68 1018.6
20220629201007 57 192 1.0 5.0 0.00 0.00 0.00 67 1018.6
20220629200506 57 192 1.0 5.0 0.00 0.00 0.00 66 1018.5
20220629200006 58 192 1.0 5.0 0.00 0.00 0.00 64 1018.6
20220629195506 58 169 0.0 5.0 0.00 0.00 0.00 62 1018.5
20220629195006 59 173 1.0 7.0 0.00 0.00 0.00 62 1018.5
20220629194505 59 181 2.0 7.0 0.00 0.00 0.00 61 1018.6
20220629194007 59 198 1.0 7.0 0.00 0.00 0.00 61 1018.5
20220629193505 59 200 2.0 7.0 0.00 0.00 0.00 60 1018.5
20220629193006 60 200 2.0 8.0 0.00 0.00 0.00 60 1018.5
20220629192505 60 201 1.0 8.0 0.00 0.00 0.00 59 1018.4
20220629192006 60 202 0.0 5.0 0.00 0.00 0.00 58 1018.4
20220629191506 61 203 1.0 5.0 0.00 0.00 0.00 58 1018.4
20220629191006 61 208 0.0 5.0 0.00 0.00 0.00 59 1018.4
20220629190506 61 207 1.0 6.0 0.00 0.00 0.00 58 1018.3
20220629190006 62 206 1.0 6.0 0.00 0.00 0.00 57 1018.3
20220629185505 62 202 1.0 6.0 0.00 0.00 0.00 57 1018.4
20220629185006 62 191 1.0 7.0 0.00 0.00 0.00 56 1018.3
20220629184506 62 191 2.0 7.0 0.00 0.00 0.00 56 1018.3
20220629184006 62 179 2.0 10.0 0.00 0.00 0.00 55 1018.3
20220629183507 62 174 3.0 10.0 0.00 0.00 0.00 55 1018.3
20220629183006 62 177 3.0 12.0 0.00 0.00 0.00 54 1018.4
20220629182506 63 175 3.0 12.0 0.00 0.00 0.00 54 1018.3
20220629182005 63 178 2.0 12.0 0.00 0.00 0.00 54 1018.3
20220629181506 63 187 2.0 13.0 0.00 0.00 0.00 57 1018.3
20220629181006 63 184 2.0 13.0 0.00 0.00 0.00 57 1018.3
20220629180507 63 181 2.0 10.0 0.00 0.00 0.00 57 1018.3
20220629180006 63 185 3.0 12.0 0.00 0.00 0.00 58 1018.5
20220629175506 63 178 5.0 12.0 0.00 0.00 0.00 59 1018.4
20220629175006 63 184 5.0 13.0 0.00 0.00 0.00 57 1018.5
20220629174506 63 189 3.0 13.0 0.00 0.00 0.00 57 1018.4
20220629174006 64 182 3.0 10.0 0.00 0.00 0.00 58 1018.5
20220629173506 64 161 2.0 12.0 0.00 0.00 0.00 58 1018.5
20220629173006 64 164 2.0 12.0 0.00 0.00 0.00 58 1018.6
20220629172506 64 173 1.0 10.0 0.00 0.00 0.00 60 1018.6
20220629172005 64 185 2.0 10.0 0.00 0.00 0.00 59 1018.6
20220629171507 64 193 3.0 10.0 0.00 0.00 0.00 60 1018.6
20220629171007 64 196 3.0 13.0 0.00 0.00 0.00 60 1018.5
20220629170506 64 188 3.0 13.0 0.00 0.00 0.00 59 1018.6
20220629170006 64 140 2.0 9.0 0.00 0.00 0.00 60 1018.6
20220629165507 64 111 1.0 6.0 0.00 0.00 0.00 61 1018.5
20220629165005 64 192 2.0 9.0 0.00 0.00 0.00 61 1018.5
20220629164506 64 145 5.0 16.0 0.00 0.00 0.00 61 1018.4
20220629164006 64 130 5.0 16.0 0.00 0.00 0.00 62 1018.6
20220629163507 64 123 3.0 14.0 0.00 0.00 0.00 62 1018.5
20220629163006 64 133 3.0 10.0 0.00 0.00 0.00 60 1018.4
20220629162506 64 124 3.0 13.0 0.00 0.00 0.00 60 1018.4
20220629162007 64 117 6.0 13.0 0.00 0.00 0.00 60 1018.4
20220629161505 64 116 3.0 12.0 0.00 0.00 0.00 59 1018.4
20220629161007 65 150 2.0 12.0 0.00 0.00 0.00 60 1018.4
20220629160506 65 143 3.0 10.0 0.00 0.00 0.00 60 1018.5
20220629160005 64 113 6.0 14.0 0.00 0.00 0.00 59 1018.6
20220629155507 64 117 6.0 14.0 0.00 0.00 0.00 58 1018.4
20220629155006 64 118 6.0 15.0 0.00 0.00 0.00 58 1018.5
20220629154506 64 123 3.0 15.0 0.00 0.00 0.00 59 1018.4
20220629154006 64 133 5.0 10.0 0.00 0.00 0.00 61 1018.6
20220629153506 64 123 6.0 13.0 0.00 0.00 0.00 59 1018.6
20220629153006 64 118 7.0 16.0 0.00 0.00 0.00 59 1018.7
20220629152507 64 120 6.0 16.0 0.00 0.00 0.00 59 1018.8
20220629152006 64 125 6.0 14.0 0.00 0.00 0.00 59 1018.8
20220629151506 64 124 6.0 13.0 0.00 0.00 0.00 58 1018.8
20220629151006 65 117 6.0 14.0 0.00 0.00 0.00 58 1018.8
20220629150505 64 120 6.0 19.0 0.00 0.00 0.00 59 1018.7
20220629150006 64 117 8.0 19.0 0.00 0.00 0.00 58 1018.9
20220629145506 64 114 7.0 15.0 0.00 0.00 0.00 57 1018.8
20220629145005 64 118 7.0 15.0 0.00 0.00 0.00 58 1018.9
20220629144506 65 120 5.0 13.0 0.00 0.00 0.00 57 1018.9
20220629144006 65 118 5.0 14.0 0.00 0.00 0.00 60 1018.8
20220629143506 64 114 7.0 14.0 0.00 0.00 0.00 59 1018.9
20220629143005 64 117 6.0 14.0 0.00 0.00 0.00 59 1019.0
20220629142506 64 112 6.0 14.0 0.00 0.00 0.00 58 1018.9
20220629142006 64 107 8.0 14.0 0.00 0.00 0.00 58 1019.0
20220629141505 64 104 7.0 14.0 0.00 0.00 0.00 59 1019.1
20220629141006 64 114 7.0 14.0 0.00 0.00 0.00 60 1019.0
20220629140506 64 117 7.0 14.0 0.00 0.00 0.00 60 1019.0
20220629140006 64 97 7.0 14.0 0.00 0.00 0.00 61 1019.0
20220629135506 64 99 6.0 14.0 0.00 0.00 0.00 60 1018.9
20220629135005 64 115 6.0 13.0 0.00 0.00 0.00 62 1019.0
20220629134506 64 112 8.0 16.0 0.00 0.00 0.00 61 1019.1
20220629134006 64 99 8.0 17.0 0.00 0.00 0.00 62 1019.2
20220629133506 64 97 6.0 17.0 0.00 0.00 0.00 60 1019.2
20220629133006 64 115 6.0 15.0 0.00 0.00 0.00 61 1019.2
20220629132505 64 124 7.0 15.0 0.00 0.00 0.00 62 1019.3
20220629132005 64 138 8.0 15.0 0.00 0.00 0.00 60 1019.3
20220629131506 64 127 7.0 13.0 0.00 0.00 0.00 61 1019.3
20220629131006 64 92 7.0 14.0 0.00 0.00 0.00 62 1019.3
20220629130505 64 112 7.0 16.0 0.00 0.00 0.00 60 1019.3
20220629130005 64 128 6.0 16.0 0.00 0.00 0.00 59 1019.4
20220629125505 64 115 6.0 16.0 0.00 0.00 0.00 60 1019.4
20220629125005 63 105 7.0 16.0 0.00 0.00 0.00 60 1019.4
20220629124505 63 106 8.0 14.0 0.00 0.00 0.00 60 1019.4
20220629124006 63 99 8.0 14.0 0.00 0.00 0.00 59 1019.4
20220629123506 63 97 6.0 14.0 0.00 0.00 0.00 58 1019.4
20220629123006 63 95 5.0 14.0 0.00 0.00 0.00 59 1019.4
20220629122506 63 94 5.0 13.0 0.00 0.00 0.00 60 1019.5
20220629122006 63 90 6.0 13.0 0.00 0.00 0.00 58 1019.3
20220629121505 63 91 6.0 13.0 0.00 0.00 0.00 61 1019.3
20220629121005 63 90 7.0 14.0 0.00 0.00 0.00 58 1019.4
20220629120505 63 88 7.0 14.0 0.00 0.00 0.00 59 1019.4
20220629120006 63 102 6.0 13.0 0.00 0.00 0.00 58 1019.3
20220629115506 63 121 6.0 13.0 0.00 0.00 0.00 58 1019.4
20220629115005 63 123 5.0 13.0 0.00 0.00 0.00 59 1019.5
20220629114505 63 112 3.0 13.0 0.00 0.00 0.00 59 1019.5
20220629114006 62 127 5.0 9.0 0.00 0.00 0.00 59 1019.5
20220629113506 62 131 5.0 12.0 0.00 0.00 0.00 62 1019.6
20220629113005 62 116 6.0 12.0 0.00 0.00 0.00 62 1019.6
20220629112505 62 113 6.0 13.0 0.00 0.00 0.00 62 1019.5
20220629112006 62 94 5.0 14.0 0.00 0.00 0.00 62 1019.6
20220629111506 62 91 5.0 14.0 0.00 0.00 0.00 62 1019.7
20220629111006 62 95 5.0 14.0 0.00 0.00 0.00 61 1019.7
20220629110505 62 110 5.0 13.0 0.00 0.00 0.00 60 1019.7
20220629110005 62 121 5.0 13.0 0.00 0.00 0.00 59 1019.6
20220629105506 62 122 6.0 15.0 0.00 0.00 0.00 61 1019.5
20220629105006 62 113 7.0 15.0 0.00 0.00 0.00 60 1019.5
20220629104505 61 117 6.0 12.0 0.00 0.00 0.00 60 1019.5
20220629104006 61 117 5.0 12.0 0.00 0.00 0.00 63 1019.6
20220629103506 61 106 3.0 8.0 0.00 0.00 0.00 60 1019.6
20220629103005 61 96 5.0 12.0 0.00 0.00 0.00 59 1019.6
20220629102505 61 91 3.0 12.0 0.00 0.00 0.00 60 1019.6
20220629102005 61 122 5.0 13.0 0.00 0.00 0.00 60 1019.5
20220629101506 61 120 5.0 13.0 0.00 0.00 0.00 59 1019.6
20220629101005 61 106 3.0 12.0 0.00 0.00 0.00 59 1019.6
20220629100505 61 109 3.0 12.0 0.00 0.00 0.00 60 1019.7
20220629100006 61 116 5.0 12.0 0.00 0.00 0.00 58 1019.8
20220629095506 61 114 5.0 13.0 0.00 0.00 0.00 61 1019.8
20220629095005 60 106 5.0 13.0 0.00 0.00 0.00 62 1019.7
20220629094505 60 112 3.0 12.0 0.00 0.00 0.00 60 1019.7
20220629094006 61 124 2.0 14.0 0.00 0.00 0.00 61 1019.8
20220629093506 60 127 2.0 14.0 0.00 0.00 0.00 60 1019.8
20220629093005 60 126 3.0 12.0 0.00 0.00 0.00 61 1019.9
20220629092505 60 114 3.0 12.0 0.00 0.00 0.00 61 1020.0
20220629092005 60 111 2.0 10.0 0.00 0.00 0.00 65 1019.9
20220629091506 60 128 2.0 8.0 0.00 0.00 0.00 61 1020.0
20220629091006 60 131 2.0 8.0 0.00 0.00 0.00 61 1019.9
20220629090505 60 123 3.0 8.0 0.00 0.00 0.00 64 1020.0
20220629090006 60 125 2.0 8.0 0.00 0.00 0.00 63 1020.0
20220629085506 60 140 2.0 8.0 0.00 0.00 0.00 63 1019.6
20220629085005 60 127 2.0 12.0 0.00 0.00 0.00 63 1019.8
20220629084506 60 123 3.0 12.0 0.00 0.00 0.00 65 1019.9
20220629084008 59 128 2.0 12.0 0.00 0.00 0.00 64 1019.9
20220629083505 59 114 2.0 12.0 0.00 0.00 0.00 63 1020.0
20220629083005 59 121 3.0 12.0 0.00 0.00 0.00 63 1019.8
20220629082505 59 135 3.0 12.0 0.00 0.00 0.00 63 1019.8
20220629082005 59 124 5.0 12.0 0.00 0.00 0.00 63 1019.9
20220629081505 59 107 5.0 10.0 0.00 0.00 0.00 61 1020.0
20220629081005 59 98 5.0 10.0 0.00 0.00 0.00 62 1019.9
20220629080505 59 95 5.0 12.0 0.00 0.00 0.00 64 1019.9
20220629080005 59 90 5.0 12.0 0.00 0.00 0.00 65 1019.9
20220629075505 58 85 5.0 12.0 0.00 0.00 0.00 65 1019.9
20220629075005 58 89 5.0 12.0 0.00 0.00 0.00 63 1020.0
20220629074505 58 90 6.0 10.0 0.00 0.00 0.00 63 1020.0
20220629074005 58 86 5.0 9.0 0.00 0.00 0.00 62 1020.0
20220629073505 58 92 3.0 10.0 0.00 0.00 0.00 63 1019.9
20220629073006 58 111 3.0 13.0 0.00 0.00 0.00 64 1020.0
20220629072505 58 129 1.0 13.0 0.00 0.00 0.00 64 1019.9
20220629072005 58 145 1.0 7.0 0.00 0.00 0.00 64 1019.9
20220629071505 58 146 1.0 7.0 0.00 0.00 0.00 63 1020.0
20220629071005 58 134 1.0 7.0 0.00 0.00 0.00 65 1019.9
20220629070505 58 123 1.0 7.0 0.00 0.00 0.00 64 1019.9
20220629070005 58 116 1.0 7.0 0.00 0.00 0.00 65 1019.9
20220629065505 57 110 2.0 10.0 0.00 0.00 0.00 66 1020.0
20220629065005 58 106 2.0 10.0 0.00 0.00 0.00 65 1019.9
20220629064505 57 101 2.0 8.0 0.00 0.00 0.00 65 1020.0
20220629064005 57 92 2.0 8.0 0.00 0.00 0.00 65 1019.8
20220629063505 57 104 2.0 8.0 0.00 0.00 0.00 67 1019.8
20220629063005 57 117 2.0 6.0 0.00 0.00 0.00 67 1019.8